Cloud_Cover
0 0 1 5 0 0 5 5 5 24 3 5 5 5 3 19 46 5 5 100 100 100 100 100 100 100 100 100 100 100 100 100 100 100 100 100 100 100 100 100 100 100 100 100
0 2 5 5 5 4 5 5 26 23 5 4 5 5 5 4 67 80 5 29 100 49 100 99 99 100 100 100 100 96 100 100 100 100 100 100 100 100 100 100 98 100 100 100
5 4 5 5 5 5 5 5 5 24 39 4 5 14 5 1 35 98 96 6 86 100 97 100 98 100 100 100 100 100 100 100 100 100 100 100 100 100 100 100 100 100 100 100
60 5 4 4 5 5 14 7 6 52 71 100 5 100 5 5 8 100 86 50 5 35 96 36 88 85 100 61 99 100 100 100 100 100 100 100 100 100 100 100 100 100 100 100
62 4 4 3 5 5 5 5 5 10 90 65 50 60 84 0 5 20 100 65 5 5 2 17 98 100 63 98 87 71 85 100 100 100 100 100 100 100 100 100 100 100 100 100
62 0 4 5 5 5 5 5 5 5 26 92 63 12 91 30 4 5 26 65 5 5 4 5 4 99 100 100 91 48 85 95 100 100 100 100 100 100 100 100 100 100 100 100
9 5 2 5 10 8 5 5 66 75 90 70 3 4 5 5 5 1 0 4 4 4 5 5 5 5 100 100 72 73 71 89 100 100 100 100 100 100 100 100 100 100 100 100
61 5 1 5 35 33 5 10 69 72 69 26 3 4 5 5 4 5 4 0 0 0 5 5 5 5 60 90 100 100 100 100 100 98 100 100 100 100 100 100 100 100 100 100
6 4 0 4 9 53 19 65 34 100 52 90 3 1 1 5 5 4 5 0 0 0 4 5 5 5 68 61 94 98 100 100 100 100 99 100 100 100 100 100 100 100 100 100
61 40 5 0 5 9 11 6 86 92 89 62 5 2 1 4 46 74 5 0 0 0 0 6 8 5 95 96 100 100 100 100 100 100 100 90 100 100 100 100 100 100 100 100
98 24 71 10 32 6 38 54 47 43 45 92 78 7 0 0 3 19 34 77 22 0 0 0 5 8 29 99 100 100 100 100 100 100 100 100 100 100 100 100 100 100 100 100
5 22 3 16 7 5 5 15 19 72 94 90 73 16 0 0 0 5 96 100 100 100 96 21 3 5 5 47 100 100 100 100 100 100 100 100 100 100 100 100 100 100 100 100
5 31 5 52 54 32 60 5 7 74 85 92 85 5 0 0 0 1 4 11 10 57 80 39 13 5 5 22 63 100 100 100 100 100 100 100 100 100 100 100 100 100 100 100
6 19 11 5 5 33 51 71 5 61 40 29 12 2 0 5 4 20 58 100 88 94 47 6 5 5 5 57 64 71 100 100 100 100 100 100 100 100 100 100 100 100 100 100
35 61 5 5 94 100 100 44 5 5 3 30 4 5 0 0 2 7 24 9 100 100 100 99 60 63 5 19 100 72 84 40 99 100 100 100 100 100 100 100 100 100 100 100
72 5 69 5 62 89 100 33 5 5 5 7 5 5 0 0 1 38 28 100 88 69 100 100 81 31 5 5 84 27 20 7 47 92 96 100 100 100 100 100 100 100 100 100
83 51 44 86 100 90 100 98 2 5 5 3 5 1 0 0 0 0 4 5 5 5 2 6 1 6 5 5 12 14 5 17 52 63 60 100 100 100 100 100 100 100 100 94
12 5 14 100 100 100 100 100 4 1 3 3 0 0 0 0 0 4 5 5 5 5 5 5 2 0 0 5 5 7 5 12 66 78 88 62 63 100 100 100 100 99 93 100
79 99 100 100 100 100 100 100 14 8 1 0 0 0 0 0 0 1 18 33 35 90 47 10 2 0 0 0 4 5 5 6 27 46 31 72 72 54 100 68 84 100 100 100
100 100 100 100 100 100 100 100 30 5 7 4 0 0 0 0 0 0 0 2 3 3 6 14 5 2 0 0 0 5 5 5 5 36 26 5 11 21 46 66 81 95 100 100
100 100 100 100 100 100 100 100 33 5 5 60 5 0 0 0 0 0 0 0 0 0 0 0 0 0 0 3 5 5 5 5 6 6 22 5 5 5 5 5 5 66 99 100
100 100 100 100 100 100 100 100 60 5 79 100 82 12 6 0 0 0 0 0 0 0 0 0 0 0 0 3 5 5 5 5 10 5 5 6 13 5 9 5 5 33 77 100
100 100 100 100 100 100 100 32 12 5 7 100 100 97 58 2 0 0 0 0 0 0 0 0 0 5 5 5 5 5 5 5 87 5 6 5 10 16 24 82 82 97 100 100
100 100 100 100 100 100 100 47 5 7 3 100 100 100 100 6 0 0 0 0 0 0 0 2 5 5 5 5 5 5 5 7 95 99 34 5 6 13 5 5 5 5 5 20
100 100 100 100 100 96 100 97 5 61 3 60 100 100 100 95 2 0 0 0 0 0 3 5 5 5 5 5 5 5 5 32 100 100 100 86 15 8 29 18 23 7 11 25
100 100 100 100 100 16 100 84 36 54 6 4 14 100 100 100 15 0 0 0 0 0 2 5 5 5 5 5 5 5 5 58 100 100 46 26 5 5 6 55 72 86 66 90